World > North America > United States > New York > Bouckville

Bouckville, NY Hourly Weather Conditions

Feedback E-mail the Weather

Quick WX

Bouckville, NY Weather Maps

°F °C°F °C
Bouckville Weather Map
UTC Time: 2/8/2023, 16:58
Your Time:

Bouckville, NY Regional Weather

Expires:202302081700;;012399
ASUS41 KBGM 081610
RWRBGM

REGIONAL WEATHER ROUNDUP
NATIONAL WEATHER SERVICE BINGHAMTON NY
1100 AM EST WED FEB 08 2023

Note: "fair" indicates few or no clouds below 12,000 feet with no
significant weather and/or obstructions to visibility.

* = Station(s) that does not report precipitation, such as rain, 
snow, etc, also no thunder or fog.


NYZ009-015>018-022>025-036-037-044>046-055>057-062-081700
...Central New York...
  
CITY           SKY/WX    TMP DP  RH WIND       PRES   REMARKS
Binghamton     PTSUNNY   36  23  59 NW15G22   30.19S WCI  27          
Cortland       CLOUDY    36  27  69 W13       30.23R WCI  27          
Dansville      PTSUNNY   43  27  53 W7        30.27R                  
Elmira         MOSUNNY   40  25  55 W10G17    30.25R WCI  33          
Endicott       PTSUNNY   39  25  56 NW6       30.24  WCI  35          
Ithaca         CLOUDY    38  26  62 W13       30.24R WCI  30          
Hamilton         N/A     37  25  60 NW9       30.20R WCI  31          
Monticello     CLOUDY    38  28  67 NW9G21    30.19R WCI  31          
Norwich        CLOUDY    37  25  60 NW8G18    30.24R WCI  31          
Oneonta          N/A     36  25  64 NW9       30.17S WCI  29          
Penn Yan       NOT AVBL                                               
Rome           CLOUDY    38  31  76 W12       30.21S WCI  30          
Seneca Falls   MOSUNNY   41  27  56 W12G20    30.26R                  
Sidney         CLOUDY    39  27  60 W10       30.22R WCI  32          
Skaneateles    PTSUNNY   39  30  70 W12       30.22S WCI  32          
Syracuse       CLOUDY    42  29  59 W13       30.23R                  
$$
 

SKY/WX - Weather  TMP - Temperature  DP - Dew Point  RH - Humidity
WIND - Wind Direction/Speed PRES - Barometric Pressure VSB - Visibility
WCI - Wind Chill Index E13G22 Wind - East Wind 13 mph/Gusts of 22 mph

Trending Headlines

Trending Entertainment Headlines

Bouckville Radar Loop

Use the map search tool if you want to place a location marker on the radar map...

Bouckville Quick Facts

National Two Day Weather Forecast


E-mail the Bouckville Weather Forecast

Voice your opinion or tell us about page issues...